Location: Marcé
(47.5801°N, 0.3280°W)
Time: 23:31:03
(UTC+01:00)

Transit 2A - Pass Details

Date: 03 December 2021
Orbit: 591 x 967 km, 66.7° (Epoch: 23 January)

Event Time Altitude Azimuth Distance (km) Brightness Sun altitude
Rises 10:36:42 0° 321° (NW) 3,662 8.9 14.0°
Reaches altitude 10° 10:39:24 10° 315° (NW) 2,714 8.3 14.2°
Maximum altitude 10:45:24 44° 247° (WSW) 1,300 7.3 14.7°
Drops below altitude 10° 10:51:08 10° 177° (S) 2,596 10.1 15.2°
Sets 10:53:40 0° 171° (S) 3,489 10.8 15.4°
